OPS 4682 DEB, 38404

Orbit data source: Space-Track

OPS 4682 DEB, 38404 is space debris in LEO originally from a launch on Sat, 03 Apr 1965 UTC launched from the Air Force Western Test Range (AFWTR). Debris objects in space refer to the collection of defunct objects orbiting the Earth. Examples of debris include non-operational satellites, rocket bodies, and fragments generated from explosions, collisions, or faulty payload assembly.

Loading next visibility...
Identifier
38404, 1965-027DH
Orbit
LEO
Country
Flag of USUS
Related business
Manufacturer
Unknown
Mission
Spacecraft
Bus & Motor
Unknown
Mass
Unknown
Launch date (UTC)
1965-04-03 (61 years ago)
Launch vehicle
Unknown
Launch site
Air Force Western Test Range (AFWTR)
Object type
Payload
Rocket body
Debris
Shape & HBR
Unknown shape, 0.1 m
Radar Cross Section
Small (<0.1 m²)

Expand to show TLE details & history
Last TLE update: 18 hours ago

TLE from 18 hours ago
0 OPS 4682 DEB
1 38404U 65027DH  26121.09530007 -.00000320  00000-0 -10909-2 0  9993
2 38404  90.2424   5.2994 0022746  65.2567 295.0919 12.99722786658707
Epoch: 2026-05-01T02:17Z
TLE epoch observation values (Epoch: 2026-05-01T02:17:13.926Z)
Latitude
0.00001°
Longitude
111.9589°
Altitude
1,258.717 km
Speed
7.229 km/s
True Right ascension
00h 21m 11s
True Declination
0° 00' 00"
Sunlit
Object was in daylight at epoch
Visualization orbit readout
Latitude
Unknown
Longitude
Unknown
Altitude
Unknown
Speed
Unknown
Apparent Right ascension
Unknown
Apparent Declination
Unknown
Sunlit
N/A
Visualization observer readout
Local Sidereal Time
03:52:16
Azimuth
Unknown
Elevation
Unknown
Doppler factor
Unknown
Orbital elements
Apogee altitude
1,277.675 km
Perigee altitude
1,242.926 km
Semi-major axis
7,638.437 km
Eccentricity
0.00227
Inclination
90.2424°
RAAN
5.2994°
Arg. of periapsis
65.2567°
True anomaly
294.85556°
Mean anomaly
295.0919°
Eccentric anomaly
294.97376°
Mean motion
3.25115 °/min
Orbital period
110.73 mins
BSTAR
-0.0010909
Loading maneuver chart data...
Computing Atmospheric mass density...
Loading historical data...
Loading historical data...
Loading historical data...
Loading historical data...
Loading historical data...
Loading historical data...
Loading historical data...

Documentation

Showing up to 5 results
|